Location: Madingley
(52.2167°N, 0.0500°E)
Time: 07:28:18
(UTC+00:00)

Cosmos 2219 Rocket - Pass Details

Date: 15 May 2026
Orbit: 826 x 846 km, 71.0° (Epoch: 5 June)

Event Time Altitude Azimuth Distance (km) Brightness Sun altitude
Rises 23:41:00 0° 317° (NW) 3,408 6.2 -18.7°
Reaches altitude 10° 23:44:43 10° 292° (WNW) 2,470 4.9 -18.7°
Maximum altitude 23:47:24 14° 264° (W) 2,214 4.3 -18.7°
Enters shadow 23:49:53 11° 237° (WSW) 2,431 4.3 -18.7°
